Durango, CO

11:22 PM MDT on April 21, 2018 (GMT -0600)
Durango-La Plata County

Weather History for KDRO - July, 2014

Change the Weather History Date:

Saturday, July 19, 2014

  Actual Average Record
Temperature  
Mean Temperature 73 °F 69 °F  
Max Temperature 92 °F 86 °F 97 °F (2005)
Min Temperature 53 °F 53 °F 40 °F (1972)
Degree Days  
Heating Degree Days 0 0  
Month to date heating degree days 0 8  
Since 1 June heating degree days 88 123  
Since 1 July heating degree days 0 8  
Cooling Degree Days 8 4  
Month to date cooling degree days 110 65  
Year to date cooling degree days 129 94  
Since 1 June cooling degree days 124 93  
Growing Degree Days 22 (Base 50)    
Moisture  
Dew Point 39 °F    
Average Humidity 35    
Maximum Humidity 59    
Minimum Humidity 11    
Precipitation  
Precipitation 0.00 in 0.06 in 1.04 in (1977)
Month to date precipitation 0.74 0.82  
Year to date precipitation 3.14 6.89  
Sea Level Pressure  
Sea Level Pressure 29.91 in    
Wind  
Wind Speed 6 mph (NNE)    
Max Wind Speed 25 mph    
Max Gust Speed 32 mph    
Visibility 10 miles    
Events      
T = Trace of Precipitation, MM = Missing Value Source: NWS Daily Summary

Daily Weather History Graph

Daily Weather History Graph

Search for Another Location

Airport or City:

Astronomy

Jul. 19, 2014 Rise Set
Actual Time 6:05 AM MDT 8:28 PM MDT
Civil Twilight 5:35 AM MDT 8:58 PM MDT
Nautical Twilight 4:59 AM MDT 9:34 PM MDT
Astronomical Twilight 4:18 AM MDT 10:15 PM MDT
Moon 12:38 AM MDT (7/19) 2:16 PM MDT (7/19)
Length of Visible Light 15h 22m
Length of Day
14h 22m
Last Quarter, 43% of the Moon is Illuminated
Jul 19
Last Quarter
Jul 26
New
Aug 3
First Quarter
Aug 10
Full
Aug 17
Last Quarter

Hourly Weather History & Observations

Time (MDT) Temp. Dew Point Humidity Pressure Visibility Wind Dir Wind Speed Gust Speed Precip Events Conditions
12:53 AM 64.9 °F 37.0 °F 36% 29.88 in 10.0 mi ESE 5.8 mph - N/A   Clear
1:53 AM 62.1 °F 39.0 °F 43% 29.87 in 10.0 mi NNE 5.8 mph - N/A   Clear
2:53 AM 59.0 °F 39.0 °F 48% 29.89 in 10.0 mi Calm Calm - N/A   Clear
3:53 AM 60.1 °F 39.0 °F 46% 29.88 in 10.0 mi North 4.6 mph - N/A   Clear
4:53 AM 55.9 °F 39.0 °F 53% 29.91 in 10.0 mi Calm Calm - N/A   Clear
5:53 AM 55.0 °F 39.0 °F 55% 29.93 in 10.0 mi Calm Calm - N/A   Clear
6:53 AM 54.0 °F 39.9 °F 59% 29.97 in 10.0 mi NNE 4.6 mph - N/A   Clear
7:53 AM 62.1 °F 43.0 °F 50% 29.97 in 10.0 mi Calm Calm - N/A   Clear
8:53 AM 70.0 °F 44.1 °F 39% 29.97 in 10.0 mi East 6.9 mph - N/A   Clear
9:53 AM 75.0 °F 46.9 °F 37% 29.96 in 10.0 mi SE 5.8 mph - N/A   Clear
10:53 AM 78.1 °F 45.0 °F 31% 29.95 in 10.0 mi NE 4.6 mph - N/A   Clear
11:53 AM 81.0 °F 43.0 °F 26% 29.95 in 10.0 mi Variable 3.5 mph - N/A   Clear
12:53 PM 82.9 °F 41.0 °F 23% 29.93 in 10.0 mi Calm Calm - N/A   Clear
1:53 PM 88.0 °F 33.1 °F 14% 29.89 in 10.0 mi West 9.2 mph 16.1 mph N/A   Clear
2:53 PM 87.1 °F 30.0 °F 13% 29.87 in 10.0 mi Variable 6.9 mph - N/A   Clear
3:53 PM 87.1 °F 33.1 °F 15% 29.86 in 10.0 mi West 20.7 mph 27.6 mph N/A   Scattered Clouds
4:53 PM 90.0 °F 30.0 °F 12% 29.85 in 10.0 mi WSW 20.7 mph 25.3 mph N/A   Partly Cloudy
5:53 PM 89.1 °F 28.0 °F 11% 29.86 in 10.0 mi WSW 15.0 mph 28.8 mph N/A   Clear
6:53 PM 84.9 °F 39.9 °F 20% 29.88 in 10.0 mi Variable 3.5 mph - N/A   Clear
7:53 PM 81.0 °F 37.9 °F 21% 29.88 in 10.0 mi Variable 3.5 mph - N/A   Scattered Clouds
9:53 PM 73.9 °F 42.1 °F 32% 29.90 in 10.0 mi Variable 5.8 mph - N/A   Clear
10:53 PM 68.0 °F 43.0 °F 40% 29.93 in 10.0 mi ENE 6.9 mph - N/A   Clear
11:53 PM 64.0 °F 44.1 °F 48% 29.94 in 10.0 mi ENE 3.5 mph - N/A   Clear